EW2136 Weather Reports


time (UTC)temp
C
wind
direction
speed
KPH
gust
KPH
rain 1hr
cm
rain 24hr
cm
rain mn
cm
humidity
%
barometer
mb
20260507040005 12 227 1.6 3.2 0.00 0.00 0.00 84 1020.1
20260507035505 12 225 1.6 3.2 0.00 0.00 0.00 84 1020.1
20260507035005 12 224 1.6 3.2 0.00 0.00 0.00 84 1020.1
20260507034505 12 226 0.0 3.2 0.00 0.00 0.00 84 1020.2
20260507034005 12 250 0.0 1.6 0.00 0.00 0.00 84 1020.1
20260507033505 12 337 0.0 1.6 0.00 0.00 0.00 84 1020.1
20260507033005 12 53 0.0 3.2 0.00 0.00 0.00 84 1020.0
20260507032505 13 54 0.0 3.2 0.00 0.00 0.00 83 1020.1
20260507032005 13 5 0.0 1.6 0.00 0.00 0.00 83 1020.1
20260507031505 13 290 0.0 3.2 0.00 0.00 0.00 83 1020.1
20260507031005 13 278 0.0 3.2 0.00 0.00 0.00 83 1020.0
20260507030505 13 275 0.0 3.2 0.00 0.00 0.00 83 1020.1
20260507030005 13 277 0.0 3.2 0.00 0.00 0.00 83 1020.0
20260507025505 13 276 0.0 3.2 0.00 0.00 0.00 83 1020.0
20260507025006 13 274 0.0 3.2 0.00 0.00 0.00 83 1020.0
20260507024506 13 58 0.0 3.2 0.00 0.00 0.00 83 1020.0
20260507024005 13 65 0.0 3.2 0.00 0.00 0.00 83 1020.0
20260507023505 13 68 0.0 3.2 0.00 0.00 0.00 82 1019.9
20260507023005 13 63 1.6 3.2 0.00 0.00 0.00 82 1019.9
20260507022505 13 297 1.6 3.2 0.00 0.00 0.00 82 1019.9
20260507022006 13 271 1.6 3.2 0.00 0.00 0.00 82 1019.9
20260507021506 13 354 1.6 3.2 0.00 0.00 0.00 82 1019.8
20260507021005 13 32 0.0 3.2 0.00 0.00 0.00 82 1019.8
20260507015505 13 253 0.0 3.2 0.00 0.00 0.00 81 1019.8
20260507015005 13 261 1.6 4.8 0.00 0.00 0.00 81 1019.7
20260507014505 13 255 1.6 4.8 0.00 0.00 0.00 81 1019.8
20260507014006 13 253 1.6 4.8 0.00 0.00 0.00 81 1019.8
20260507013506 13 246 1.6 4.8 0.00 0.00 0.00 81 1019.8
20260507013005 13 247 1.6 4.8 0.00 0.00 0.00 80 1019.8
20260507012006 13 236 1.6 3.2 0.00 0.00 0.00 79 1019.9
20260507011506 13 102 1.6 6.4 0.00 0.00 0.00 79 1019.9
20260507010506 13 265 3.2 6.4 0.00 0.00 0.00 79 1019.9
20260507010005 13 240 1.6 6.4 0.00 0.00 0.00 78 1019.9
20260507005005 13 243 3.2 11.3 0.00 0.00 0.00 77 1020.0
20260507004505 13 247 3.2 11.3 0.00 0.00 0.00 76 1020.0
20260507004005 14 249 3.2 11.3 0.00 0.00 0.00 75 1019.9
20260507003505 14 244 1.6 6.4 0.00 0.00 0.00 76 1019.9
20260507003006 14 232 3.2 6.4 0.00 0.00 0.00 76 1019.8
20260507002506 14 239 3.2 12.9 0.00 0.00 0.00 76 1019.9
20260507002005 14 250 3.2 12.9 0.00 0.00 0.00 75 1019.9
20260507001005 14 96 3.2 9.7 0.00 0.00 0.00 75 1019.9
20260507000005 14 227 3.2 8.0 0.00 0.00 0.00 75 1019.9
20260506235505 14 232 1.6 6.4 0.00 0.00 0.00 75 1019.8
20260506235006 14 244 1.6 9.7 0.00 0.00 0.00 75 1019.8
20260506234505 14 257 3.2 12.9 0.00 0.00 0.00 75 1019.8
20260506234005 14 240 3.2 12.9 0.00 0.00 0.00 74 1019.9
20260506233006 14 262 3.2 9.7 0.00 0.00 0.00 74 1019.9
20260506232505 14 241 3.2 8.0 0.00 0.00 0.00 73 1019.9
20260506231505 14 244 3.2 8.0 0.00 0.00 0.00 74 1020.0
20260506231005 14 226 3.2 8.0 0.00 0.00 0.00 74 1019.8
20260506230505 14 201 3.2 6.4 0.00 0.00 0.00 73 1019.9
20260506230005 14 240 3.2 11.3 0.00 0.00 0.00 73 1019.9
20260506225005 14 165 3.2 14.5 0.00 0.00 0.00 72 1019.9
20260506224505 14 124 1.6 14.5 0.00 0.00 0.00 72 1019.9
20260506224005 14 133 1.6 6.4 0.00 0.00 0.00 72 1019.9
20260506223505 14 122 1.6 8.0 0.00 0.00 0.00 72 1019.9
20260506223005 14 91 1.6 8.0 0.00 0.00 0.00 72 1019.9
20260506222505 14 108 3.2 8.0 0.00 0.00 0.00 72 1020.0
20260506222005 14 214 3.2 8.0 0.00 0.00 0.00 72 1020.0
20260506221505 14 234 3.2 9.7 0.00 0.00 0.00 72 1020.0
20260506220505 14 225 3.2 11.3 0.00 0.00 0.00 72 1020.1
20260506220005 14 228 3.2 11.3 0.00 0.00 0.00 72 1020.2
20260506215505 14 249 3.2 11.3 0.00 0.00 0.00 72 1020.3
20260506215006 14 250 3.2 11.3 0.00 0.00 0.00 72 1020.2
20260506214504 14 248 3.2 6.4 0.00 0.00 0.00 73 1020.2
20260506214005 13 309 3.2 8.0 0.00 0.00 0.00 73 1020.2
20260506213505 13 282 3.2 9.7 0.00 0.00 0.00 74 1020.2
20260506213005 14 242 3.2 9.7 0.00 0.00 0.00 73 1020.2
20260506212505 14 238 3.2 9.7 0.00 0.00 0.00 73 1020.3
20260506212005 14 239 1.6 8.0 0.00 0.00 0.00 73 1020.3
20260506211505 14 252 3.2 9.7 0.00 0.00 0.00 72 1020.2
20260506211005 14 274 3.2 9.7 0.00 0.00 0.00 73 1020.2
20260506210504 14 333 1.6 4.8 0.00 0.00 0.00 75 1020.1
20260506210005 14 10 1.6 4.8 0.00 0.00 0.00 75 1020.1
20260506205505 13 236 3.2 8.0 0.00 0.00 0.00 77 1020.2
20260506205005 13 211 3.2 8.0 0.00 0.00 0.00 76 1020.2
20260506204505 13 92 1.6 6.4 0.00 0.00 0.00 78 1020.1
20260506204005 13 113 1.6 4.8 0.00 0.00 0.00 79 1020.1
20260506203505 13 123 1.6 4.8 0.00 0.00 0.00 78 1020.1
20260506203005 13 113 1.6 8.0 0.00 0.00 0.00 78 1020.2
20260506202505 13 95 3.2 8.0 0.00 0.00 0.00 78 1020.1
20260506202005 13 108 1.6 8.0 0.00 0.00 0.00 79 1020.1
20260506201505 13 128 1.6 9.7 0.00 0.00 0.00 79 1020.1
20260506201005 13 142 1.6 9.7 0.00 0.00 0.00 80 1020.1
20260506200505 13 202 1.6 6.4 0.00 0.00 0.00 79 1020.1
20260506200005 13 157 3.2 14.5 0.00 0.00 0.00 80 1020.2
20260506195005 13 104 1.6 6.4 0.00 0.00 0.00 81 1020.0
20260506194505 13 147 3.2 6.4 0.00 0.00 0.00 81 1020.0
20260506194004 13 136 3.2 6.4 0.00 0.00 0.00 80 1020.0
20260506193504 13 108 3.2 6.4 0.00 0.00 0.00 82 1020.0
20260506193005 13 107 3.2 6.4 0.00 0.00 0.00 81 1020.0
20260506192505 13 101 1.6 6.4 0.00 0.00 0.00 83 1020.0
20260506192005 13 93 1.6 12.9 0.00 0.00 0.00 82 1020.0
20260506191505 13 107 3.2 12.9 0.00 0.00 0.00 82 1020.0
20260506191005 12 151 3.2 9.7 0.00 0.00 0.00 83 1020.0
20260506190005 12 96 1.6 6.4 0.00 0.00 0.00 85 1020.0
20260506185505 12 77 1.6 6.4 0.00 0.00 0.00 85 1019.9
20260506184005 12 85 1.6 4.8 0.00 0.00 0.00 86 1019.9
20260506183505 12 103 1.6 4.8 0.00 0.00 0.00 87 1019.8
20260506182504 12 108 1.6 9.7 0.00 0.00 0.00 85 1019.8
20260506182005 12 100 1.6 9.7 0.00 0.00 0.00 86 1019.9
20260506181505 12 124 1.6 4.8 0.00 0.00 0.00 85 1019.8
20260506181004 12 119 1.6 4.8 0.00 0.00 0.00 86 1019.8
20260506180505 12 94 1.6 4.8 0.00 0.00 0.00 86 1019.9
20260506180006 12 70 1.6 4.8 0.00 0.00 0.00 87 1020.0
20260506175504 12 97 1.6 9.7 0.00 0.00 0.00 86 1019.7
20260506175005 12 98 3.2 9.7 0.00 0.00 0.00 87 1019.6
20260506174505 12 184 3.2 6.4 0.00 0.00 0.00 87 1019.4
20260506174004 12 172 3.2 8.0 0.00 0.00 0.00 86 1019.4
20260506173004 12 232 3.2 8.0 0.00 0.00 0.00 86 1019.5
20260506172505 12 242 3.2 8.0 0.00 0.00 0.00 86 1019.7
20260506172004 12 251 3.2 8.0 0.00 0.00 0.00 86 1019.7
20260506171505 12 249 3.2 8.0 0.00 0.00 0.00 86 1019.8
20260506170505 12 228 1.6 8.0 0.00 0.00 0.00 86 1019.6
20260506170005 12 231 1.6 8.0 0.00 0.00 0.00 86 1019.7
20260506165504 12 239 1.6 6.4 0.00 0.00 0.00 86 1019.7
20260506165005 12 239 1.6 6.4 0.00 0.00 0.00 87 1019.7
20260506164504 12 68 1.6 4.8 0.00 0.00 0.00 87 1019.5
20260506164005 12 249 1.6 4.8 0.00 0.00 0.00 87 1019.5
20260506163504 12 242 1.6 6.4 0.00 0.00 0.00 87 1019.5
20260506163005 12 254 1.6 9.7 0.00 0.00 0.00 87 1019.6
20260506162504 12 251 1.6 9.7 0.00 0.00 0.00 88 1019.6
20260506162004 12 95 1.6 6.4 0.00 0.00 0.00 89 1019.4
20260506161504 12 75 1.6 6.4 0.00 0.00 0.00 89 1019.3
20260506161005 12 75 1.6 6.4 0.00 0.00 0.00 89 1019.2
20260506160005 12 119 1.6 6.4 0.00 0.00 0.00 89 1019.0
20260506155505 12 117 1.6 6.4 0.00 0.00 0.00 89 1018.9
20260506155004 12 98 1.6 6.4 0.00 0.00 0.00 89 1018.9
20260506154504 12 123 1.6 6.4 0.00 0.00 0.00 89 1018.8
20260506154004 12 144 1.6 4.8 0.00 0.00 0.00 89 1019.0
20260506153504 12 103 1.6 6.4 0.00 0.00 0.00 89 1019.1
20260506153004 12 86 1.6 6.4 0.00 0.00 0.00 89 1019.1
20260506152004 12 198 1.6 3.2 0.00 0.00 0.00 89 1019.3
20260506151504 11 255 1.6 6.4 0.00 0.00 0.00 89 1019.3
20260506151005 12 270 1.6 6.4 0.00 0.00 0.00 88 1019.4
20260506150505 12 263 3.2 6.4 0.00 0.00 0.00 88 1019.4
20260506150004 12 244 3.2 6.4 0.00 0.00 0.00 88 1019.1
20260506145505 12 237 1.6 6.4 0.00 0.00 0.00 88 1019.0
20260506145004 12 228 1.6 4.8 0.00 0.00 0.00 88 1018.9
20260506144505 11 239 3.2 8.0 0.00 0.00 0.00 88 1018.8
20260506144004 11 243 3.2 8.0 0.00 0.00 0.00 88 1019.0
20260506143504 11 233 1.6 6.4 0.00 0.00 0.00 88 1019.0
20260506142504 11 249 1.6 4.8 0.00 0.00 0.00 89 1019.1
20260506142004 11 246 1.6 4.8 0.00 0.00 0.00 89 1018.9
20260506141504 11 215 0.0 3.2 0.00 0.00 0.00 89 1018.9
20260506140504 11 56 0.0 3.2 0.00 0.00 0.00 89 1018.9
20260506140005 11 235 1.6 3.2 0.00 0.00 0.00 89 1018.8
20260506135504 11 241 1.6 3.2 0.00 0.00 0.00 88 1018.8
20260506135004 11 228 1.6 8.0 0.00 0.00 0.00 88 1018.8
20260506134504 11 238 1.6 8.0 0.00 0.00 0.00 88 1018.8
20260506134004 11 243 3.2 6.4 0.00 0.00 0.00 88 1018.9
20260506133504 11 239 1.6 6.4 0.00 0.00 0.00 88 1018.7
20260506133004 12 230 1.6 4.8 0.00 0.00 0.00 87 1018.6
20260506132504 12 229 1.6 4.8 0.00 0.00 0.00 88 1018.7
20260506132004 12 235 0.0 3.2 0.00 0.00 0.00 88 1018.7
20260506131504 11 243 0.0 4.8 0.00 0.00 0.00 88 1018.6
20260506131004 11 233 1.6 4.8 0.00 0.00 0.00 88 1018.5
20260506130504 11 226 0.0 4.8 0.00 0.00 0.00 88 1018.4
20260506130005 11 38 0.0 3.2 0.00 0.00 0.00 89 1018.4
20260506125504 11 60 0.0 3.2 0.00 0.00 0.00 88 1018.3
20260506125004 11 74 0.0 3.2 0.00 0.00 0.00 88 1018.0
20260506124504 11 63 0.0 3.2 0.00 0.00 0.00 88 1018.1
20260506124004 11 74 0.0 3.2 0.00 0.00 0.00 88 1018.2
20260506123504 11 61 0.0 3.2 0.00 0.00 0.00 88 1018.2
20260506123004 11 46 0.0 3.2 0.00 0.00 0.00 87 1018.3
20260506122504 11 52 1.6 6.4 0.00 0.00 0.00 88 1018.2
20260506122004 11 25 1.6 6.4 0.00 0.00 0.00 88 1018.1
20260506121504 11 331 0.0 4.8 0.00 0.00 0.00 88 1018.0
20260506121004 11 278 0.0 4.8 0.00 0.00 0.00 88 1018.1
20260506120505 11 281 1.6 4.8 0.00 0.00 0.00 87 1018.1
20260506120005 11 53 0.0 3.2 0.00 0.00 0.00 88 1018.0
20260506115504 11 66 0.0 3.2 0.00 0.00 0.00 88 1018.0
20260506115004 11 198 1.6 3.2 0.00 0.00 0.00 88 1018.1
20260506114504 11 273 1.6 4.8 0.00 0.00 0.00 88 1018.0
20260506113503 11 204 1.6 4.8 0.00 0.00 0.00 88 1017.9
20260506113004 11 220 1.6 4.8 0.00 0.00 0.00 87 1017.8
20260506112504 11 240 1.6 8.0 0.00 0.00 0.00 87 1017.8
20260506111504 11 235 3.2 8.0 0.00 0.00 0.00 87 1017.6
20260506111004 11 242 1.6 8.0 0.00 0.00 0.00 87 1017.6
20260506110504 11 250 1.6 8.0 0.00 0.00 0.00 87 1017.6
20260506110004 11 235 1.6 4.8 0.00 0.00 0.00 87 1017.6
20260506105504 11 225 1.6 8.0 0.00 0.00 0.00 88 1017.5
20260506105004 11 232 1.6 8.0 0.00 0.00 0.00 88 1017.4
20260506104504 11 237 1.6 6.4 0.00 0.00 0.00 88 1017.4
20260506104004 11 244 0.0 6.4 0.00 0.00 0.00 88 1017.4
20260506103504 11 248 1.6 6.4 0.00 0.00 0.00 88 1017.4
20260506103004 11 238 1.6 6.4 0.00 0.00 0.00 88 1017.4
20260506102504 11 231 1.6 6.4 0.00 0.00 0.00 89 1017.4
20260506101504 11 231 1.6 4.8 0.00 0.00 0.00 90 1017.3
20260506101004 11 235 1.6 4.8 0.00 0.00 0.00 90 1017.3
20260506100504 11 232 1.6 4.8 0.00 0.00 0.00 90 1017.2
20260506100004 11 232 1.6 4.8 0.00 0.00 0.00 91 1017.2
20260506095503 11 229 1.6 4.8 0.00 0.00 0.00 91 1017.2
20260506095004 11 229 1.6 4.8 0.00 0.00 0.00 92 1017.1
20260506094504 10 226 1.6 4.8 0.00 0.00 0.00 92 1017.0
20260506094003 10 221 0.0 3.2 0.00 0.00 0.00 92 1016.9
20260506093504 10 241 1.6 4.8 0.00 0.00 0.00 92 1017.0
20260506093004 10 242 0.0 4.8 0.00 0.00 0.00 92 1016.9
20260506091504 10 233 0.0 1.6 0.00 0.00 0.00 91 1016.8
20260506091004 10 237 0.0 1.6 0.00 0.00 0.00 91 1016.7
20260506090504 10 227 0.0 1.6 0.00 0.00 0.00 91 1016.8
20260506090003 10 217 0.0 1.6 0.00 0.00 0.00 91 1016.8
20260506085504 10 46 0.0 1.6 0.00 0.00 0.00 91 1016.7
20260506085006 10 46 0.0 1.6 0.00 0.00 0.00 91 1016.7
20260506084506 10 0 0.0 0.0 0.00 0.00 0.00 91 1016.6
20260506084006 10 46 0.0 1.6 0.00 0.00 0.00 91 1016.6
20260506083506 10 47 0.0 1.6 0.00 0.00 0.00 91 1016.5
20260506083006 11 50 0.0 1.6 0.00 0.00 0.00 91 1016.5
20260506082506 11 51 0.0 3.2 0.00 0.00 0.00 90 1016.4
20260506082006 11 55 0.0 3.2 0.00 0.00 0.00 90 1016.3
20260506081505 11 108 0.0 1.6 0.00 0.00 0.00 90 1016.3
20260506081006 11 75 0.0 1.6 0.00 0.00 0.00 90 1016.3
20260506080506 11 63 0.0 1.6 0.00 0.00 0.00 90 1016.2
20260506073507 11 75 0.0 1.6 0.00 0.00 0.00 90 1016.1
20260506072506 11 73 0.0 3.2 0.00 0.00 0.00 90 1016.0
20260506072005 11 63 0.0 1.6 0.00 0.00 0.00 90 1016.0
20260506071506 11 55 0.0 1.6 0.00 0.00 0.00 89 1016.1
20260506071006 11 63 0.0 1.6 0.00 0.00 0.00 89 1016.0
20260506062005 12 78 0.0 1.6 0.00 0.00 0.00 88 1015.8
20260506061006 12 90 0.0 1.6 0.00 0.00 0.00 88 1015.7
20260506060506 12 46 0.0 1.6 0.00 0.00 0.00 87 1015.7
20260506051006 12 62 0.0 1.6 0.00 0.00 0.00 85 1015.2
20260506050505 12 70 0.0 3.2 0.00 0.00 0.00 85 1015.1
20260506044506 13 57 0.0 1.6 0.00 0.00 0.00 84 1014.9
20260506044005 13 71 0.0 1.6 0.00 0.00 0.00 84 1014.9
20260506043006 13 97 0.0 1.6 0.00 0.00 0.00 83 1014.9
20260506042505 13 332 0.0 1.6 0.00 0.00 0.00 83 1014.9
20260506042006 13 57 0.0 1.6 0.00 0.00 0.00 82 1014.9
20260506041505 13 61 0.0 1.6 0.00 0.00 0.00 82 1014.8
20260506041006 14 57 0.0 1.6 0.00 0.00 0.00 81 1014.8